Probability
0 0 0 0 0 0 0 0 0 1 2 3 3 3 7 11 13 12 8 5 6 7 8 8 8 9 8 6 6 6 5 4 2 3 3 2 1 1 1 0 0 0 0 0
0 0 0 0 0 0 0 0 0 1 4 6 7 9 14 17 16 12 9 9 9 10 10 8 8 9 9 9 9 9 8 5 4 4 3 1 1 1 1 0 0 0 0 0
0 0 0 0 0 1 3 4 5 8 11 14 14 15 18 19 17 14 12 13 15 15 13 9 8 10 12 13 13 11 9 7 6 5 3 2 1 1 1 1 0 0 0 0
0 0 0 0 1 4 9 11 13 18 23 23 19 17 19 18 17 15 14 15 19 20 16 10 8 11 13 15 14 11 8 7 7 6 4 3 2 2 2 2 0 0 0 0
0 0 0 1 2 5 11 14 17 21 26 24 19 19 20 18 18 17 17 17 20 23 20 14 10 11 14 15 13 11 9 9 8 7 5 4 3 3 2 1 0 0 0 0
0 0 0 1 2 4 7 11 14 17 18 17 16 16 16 17 18 18 18 18 20 22 22 17 12 12 15 14 12 10 9 9 9 7 5 4 4 3 1 0 0 0 0 0
0 0 0 0 1 1 3 6 9 11 10 9 9 9 10 13 15 15 15 16 17 17 18 17 14 13 13 12 10 8 6 6 6 5 4 4 3 2 1 0 0 0 0 0
0 0 0 0 1 0 1 4 7 8 6 5 5 5 7 9 10 10 10 11 12 12 13 13 12 12 10 8 6 5 5 4 3 2 2 2 1 1 0 0 0 0 0 0
0 0 0 0 0 0 1 5 8 6 4 3 2 2 4 5 6 7 7 7 7 9 10 9 8 8 7 4 3 4 4 2 1 1 1 1 0 0 0 0 0 0 0 0
0 0 0 0 0 0 1 3 4 4 2 1 0 0 1 2 4 6 5 4 5 7 8 6 4 3 3 2 2 2 2 1 0 0 0 0 0 0 0 0 0 0 0 0
0 0 0 0 0 0 0 0 1 1 1 0 0 0 1 3 5 6 4 3 4 5 5 3 1 1 0 1 1 1 0 0 0 0 0 0 0 0 0 0 0 0 0 0
0 0 0 0 0 0 0 0 1 2 1 0 0 0 2 4 5 4 3 2 2 2 1 1 0 0 0 0 0 0 0 0 0 0 0 0 0 0 0 0 0 0 0 0
0 0 0 0 0 0 0 1 2 3 2 1 0 0 1 2 2 1 1 1 1 0 0 0 0 0 0 0 0 0 0 0 0 0 0 0 0 0 0 0 0 0 0 0
0 0 0 0 0 0 1 2 3 3 2 1 0 0 0 0 0 0 0 0 0 0 0 0 0 0 0 0 0 0 0 0 0 0 0 0 0 0 0 0 0 0 0 0
0 0 0 0 0 0 1 2 3 2 1 0 0 0 0 0 0 0 0 0 0 0 0 0 0 0 0 0 0 0 0 0 0 0 0 0 0 0 0 0 0 0 0 0
0 0 0 0 0 0 1 2 2 1 0 0 0 0 0 0 0 0 0 0 0 0 0 0 0 0 0 0 0 0 0 0 0 0 0 0 0 0 0 0 0 0 0 0
0 0 0 0 0 0 0 1 1 1 0 0 0 0 0 0 0 0 0 0 0 0 0 0 0 0 0 0 0 0 0 0 0 0 0 0 0 0 0 0 0 0 0 0
0 0 0 0 0 0 0 0 0 0 0 0 0 0 0 0 0 0 0 0 0 0 0 0 0 0 0 0 0 0 0 0 0 0 0 0 0 0 0 0 0 0 0 0
0 0 0 0 0 0 0 0 0 0 0 0 0 0 0 0 0 0 0 0 0 0 0 0 0 0 0 0 0 0 0 0 0 0 0 0 0 0 0 0 0 0 0 0
0 0 0 0 0 0 0 0 0 0 0 0 0 0 0 0 0 0 0 0 0 0 0 0 0 0 0 0 0 0 0 0 0 0 0 0 0 0 0 0 0 0 0 0
0 0 0 0 0 0 0 0 0 0 0 0 0 0 0 0 0 0 0 0 0 0 0 0 0 0 0 0 0 0 0 0 0 0 0 0 0 0 0 0 0 0 0 0
0 0 0 0 0 0 0 0 0 0 0 0 0 0 0 0 0 0 0 0 0 0 0 0 0 0 0 0 0 0 0 0 0 0 0 0 0 0 0 0 0 0 0 0
0 0 0 0 0 0 0 0 0 0 0 0 0 0 0 0 0 0 0 0 0 0 0 0 0 0 0 0 0 0 0 0 0 0 0 0 0 0 0 0 0 0 0 0
0 0 0 0 0 0 0 0 0 0 0 0 0 0 0 0 0 0 0 0 0 0 0 0 0 0 0 0 0 0 0 0 0 0 0 0 0 0 0 0 0 0 0 0
0 0 0 0 0 0 0 0 0 0 0 0 0 0 0 0 0 0 0 0 0 0 0 0 0 0 0 0 0 0 0 0 0 0 0 0 0 0 0 0 0 0 0 0
0 0 0 0 0 0 0 0 0 0 0 0 0 0 0 0 0 0 0 0 0 0 0 0 0 0 0 0 0 0 0 0 0 0 0 0 0 0 0 0 0 0 0 0
0 0 0 0 0 0 0 0 0 0 0 0 0 0 0 0 0 0 0 0 0 0 0 0 0 0 0 0 0 0 0 0 0 0 0 0 0 0 0 0 0 0 0 0
Wind_Speed
2 1 0 0 1 2 2 4 4 5 5 7 9 8 7 6 8 9 9 9 11 11 9 8 8 8 8 8 7 8 8 8 7 7 6 6 6 6 6 6 6 5 5 5
3 4 4 3 3 2 1 0 2 3 2 4 3 3 4 4 7 8 10 10 10 11 11 11 11 11 9 9 8 8 8 8 7 7 7 7 6 6 7 6 5 5 6 5
2 3 4 2 2 0 2 2 1 3 3 1 5 5 5 4 5 8 9 9 10 10 10 10 11 11 10 9 8 8 8 8 7 7 7 7 8 8 7 7 7 7 6 7
1 3 2 8 3 3 6 6 4 3 2 4 5 4 3 2 4 5 6 7 7 8 8 7 7 8 8 8 9 9 9 8 8 9 8 8 8 9 8 7 8 7 7 8
4 2 4 5 4 1 4 4 5 4 5 5 5 6 4 3 2 4 4 5 6 6 6 6 7 8 9 9 9 9 9 9 9 9 10 9 9 9 9 9 9 8 8 8
4 3 4 4 6 2 7 3 3 4 5 3 3 3 1 1 3 4 4 4 5 6 7 6 6 8 10 9 9 9 8 8 9 9 10 11 10 10 10 10 11 10 10 8
4 4 4 3 6 5 5 3 2 3 3 3 1 2 3 3 4 5 5 5 6 7 6 5 6 9 9 8 8 7 8 9 10 10 11 11 11 10 11 12 12 11 11 9
2 3 5 4 4 4 3 2 1 2 3 4 4 5 5 5 6 6 6 7 7 7 7 5 7 10 11 9 8 9 11 11 11 10 10 11 12 11 11 12 12 11 10 9
3 4 3 2 3 2 3 3 1 2 2 5 5 5 6 6 6 6 7 7 6 8 9 7 7 9 12 10 10 12 13 12 12 12 11 11 11 11 10 9 9 8 8 7
1 1 1 3 3 3 4 3 3 3 4 4 6 6 7 7 7 7 8 8 8 10 11 10 9 9 10 10 11 14 14 12 11 12 11 10 8 7 8 8 8 8 7 7
1 1 2 3 3 3 4 4 5 5 5 6 8 8 8 8 8 8 8 8 8 10 12 12 11 11 11 10 13 15 14 13 12 11 11 11 10 8 7 6 7 8 6 5
4 3 2 3 2 1 3 3 4 7 7 7 8 10 10 9 8 9 10 9 11 11 12 12 12 12 11 10 13 14 13 11 10 9 9 10 10 10 14 11 13 12 9 7
3 2 2 1 1 1 2 4 6 8 9 9 9 11 12 11 10 11 11 11 12 12 12 12 12 12 10 9 11 12 12 11 9 9 9 8 8 10 9 8 11 10 9 9
2 2 1 1 1 1 4 7 9 10 10 11 11 12 13 13 12 12 12 11 11 12 11 11 12 11 8 9 11 11 11 11 10 7 7 7 7 7 7 7 5 3 5 6
1 2 3 3 3 5 7 9 11 11 11 12 11 12 13 14 13 12 11 11 12 12 12 11 12 9 8 9 10 10 9 7 7 7 7 7 6 6 6 6 5 3 2 3
1 3 5 6 6 7 8 10 12 12 12 13 12 13 13 14 14 12 10 10 12 11 10 10 10 8 8 9 9 7 7 11 9 7 7 6 6 6 5 5 4 3 3 2
4 4 6 7 7 8 8 10 12 12 13 14 14 14 14 15 14 13 11 10 11 10 9 9 7 7 7 8 8 6 6 8 11 8 6 6 6 5 5 5 4 3 2 2
4 4 6 8 9 10 10 12 12 13 13 14 14 13 13 13 13 12 10 10 10 10 8 6 7 7 7 7 7 6 6 6 6 6 6 6 6 5 5 4 5 5 3 4
5 7 8 10 10 11 12 12 12 12 13 13 14 13 12 11 11 10 9 10 10 8 5 6 9 8 7 7 8 6 6 6 6 6 6 7 6 5 5 5 4 4 4 4
9 11 12 12 12 12 12 12 13 13 12 13 13 13 12 10 9 9 9 8 5 4 5 6 7 6 6 7 9 5 6 6 6 6 5 5 5 5 5 5 5 4 4 3
11 12 13 13 12 12 12 12 13 13 11 11 12 12 11 9 8 8 9 7 4 5 7 8 6 4 4 6 8 6 6 6 6 5 5 5 5 5 5 5 4 4 4 3
10 11 13 12 12 12 10 10 12 12 11 11 11 11 11 9 8 7 6 5 4 7 5 4 4 6 7 8 5 6 6 6 5 5 5 5 5 5 4 4 4 3 3 3
10 10 11 11 12 12 12 11 11 11 11 11 10 10 9 7 6 7 5 2 4 7 5 4 7 10 10 6 5 6 6 6 5 5 5 4 4 4 4 4 3 3 3 3
10 10 10 11 12 12 11 10 10 9 10 9 8 9 8 7 5 3 4 6 7 8 5 6 10 11 9 5 5 5 5 5 5 5 5 4 4 4 4 3 3 2 3 3
10 10 11 11 10 9 9 10 10 10 9 7 8 7 6 5 5 5 5 6 8 7 5 6 9 9 6 4 5 5 4 4 5 5 4 4 4 4 3 3 3 3 2 2
8 8 7 8 7 7 7 7 7 6 7 7 6 5 5 5 6 5 5 5 6 6 4 3 4 5 4 4 5 5 4 5 5 4 4 4 4 3 3 3 3 3 3 3
8 7 6 6 6 6 6 6 6 6 6 7 6 5 5 5 5 5 5 4 4 3 3 3 3 3 4 4 4 4 4 4 4 4 4 3 3 3 3 3 3 3 3 3
Wind_Direction
169 222 107 29 37 64 103 171 175 206 193 220 212 197 188 172 158 150 152 163 167 167 165 166 169 172 171 170 168 165 158 159 165 161 154 149 147 144 139 136 141 140 131 124
18 16 32 14 349 2 6 141 179 149 226 261 192 137 130 157 158 156 162 165 167 167 169 174 179 178 173 170 171 165 162 162 156 150 146 145 145 139 134 134 129 121 118 116
326 342 43 331 268 132 19 344 143 158 221 170 117 135 151 158 155 163 169 165 165 166 172 180 184 176 172 170 161 157 156 155 154 149 147 146 142 130 130 128 117 109 107 101
128 56 220 246 258 111 87 46 56 91 95 109 119 111 93 132 147 146 157 158 163 163 168 175 174 168 161 155 152 155 159 160 156 149 143 139 134 131 128 116 108 103 96 95
124 159 270 298 336 50 105 43 19 78 80 80 94 79 37 13 104 133 151 155 157 153 148 152 156 160 151 149 150 153 157 156 152 147 140 133 127 124 117 109 101 95 90 89
134 153 214 260 312 337 97 71 352 88 103 97 79 90 258 355 69 89 92 112 127 130 121 137 151 149 145 149 148 154 153 146 140 136 133 128 127 120 112 108 105 100 89 80
159 187 241 291 317 36 95 209 276 106 121 111 105 173 167 107 80 83 90 99 112 121 126 139 144 136 132 135 139 139 131 127 125 123 123 123 118 114 114 111 106 100 92 77
144 178 238 323 38 90 178 207 107 97 106 108 111 111 113 98 93 91 96 97 108 115 117 115 122 125 121 120 120 115 113 112 112 113 115 113 112 111 112 112 107 102 95 82
192 205 245 15 101 128 131 117 106 108 124 127 124 127 122 105 98 90 93 96 103 111 102 89 93 113 116 116 115 111 104 102 100 96 96 103 109 112 111 111 111 108 102 96
11 303 19 28 41 48 71 91 97 106 121 127 126 124 120 115 105 93 90 94 102 107 102 92 87 90 100 106 108 107 104 99 96 96 92 88 90 99 109 113 116 114 110 107
250 267 20 15 18 45 60 72 79 89 101 120 125 121 119 114 111 104 98 94 97 100 102 101 98 94 95 101 104 101 100 99 97 94 95 87 79 72 86 85 114 121 120 122
218 220 183 250 289 54 92 99 105 104 92 98 114 118 112 109 106 105 101 97 96 96 99 99 98 96 95 99 105 107 106 104 103 102 100 100 98 81 58 76 89 96 109 114
201 201 176 218 349 60 108 114 112 113 116 115 107 109 107 103 98 99 99 97 98 98 98 99 98 96 95 99 105 107 111 111 109 109 110 110 110 111 101 68 65 77 91 96
172 140 130 120 99 98 110 106 103 100 103 109 108 107 106 104 102 100 99 99 99 97 95 95 96 94 95 99 101 103 107 111 114 116 118 119 119 119 120 120 107 67 51 69
239 178 165 142 118 110 111 111 109 107 107 105 107 109 110 109 105 100 98 99 97 94 93 94 94 92 95 99 101 103 106 111 113 116 116 117 117 114 111 110 109 102 72 45
169 135 133 133 129 123 119 116 117 118 116 113 111 109 107 107 104 101 98 100 100 97 95 94 92 92 93 96 97 99 104 114 116 115 114 113 115 116 115 114 110 104 98 85
150 147 140 138 131 124 121 122 121 121 120 117 116 114 111 109 105 101 96 93 93 91 91 94 94 92 90 93 95 95 96 104 108 108 112 117 118 120 119 118 117 110 104 103
144 151 147 141 134 126 118 115 117 119 119 118 116 114 113 113 112 110 107 101 94 86 79 85 93 91 87 88 92 95 96 95 99 103 106 108 110 112 114 115 118 114 97 92
119 122 123 120 119 118 116 115 116 116 117 118 116 113 110 109 110 110 107 103 101 95 83 86 93 90 90 93 97 97 101 101 98 98 104 111 110 111 113 111 112 114 114 107
103 109 112 113 113 116 115 115 115 115 116 117 115 113 111 110 110 108 102 94 93 107 106 95 91 89 92 102 106 104 106 106 105 103 102 103 106 105 106 109 112 112 111 112
107 110 111 111 111 113 118 120 120 121 121 119 119 119 117 115 113 110 107 100 85 92 92 90 89 91 95 104 101 101 101 102 104 106 106 107 106 105 107 110 112 116 120 122
110 111 111 111 111 112 115 118 121 121 119 117 117 119 117 114 108 99 93 108 113 104 97 93 99 105 107 103 99 104 106 108 108 107 108 111 113 114 115 117 119 124 126 130
105 105 107 109 111 112 110 112 117 119 120 122 125 125 123 120 119 119 113 107 106 104 101 103 109 105 103 97 100 105 108 109 110 111 115 118 121 123 124 126 130 132 132 133
102 103 104 107 108 109 109 110 111 113 115 115 117 120 120 115 101 98 118 120 114 108 102 110 107 105 105 103 103 104 105 108 112 115 115 114 115 118 123 127 130 136 139 140
104 106 107 109 109 110 112 111 108 107 107 108 111 111 111 118 125 126 116 115 116 109 103 107 108 105 104 110 110 111 114 121 125 123 119 121 125 128 133 136 139 142 146 154
102 103 104 106 111 114 113 111 110 112 114 112 109 110 109 107 113 115 113 117 118 116 112 109 108 102 105 112 116 119 120 119 116 120 128 130 134 136 139 145 148 153 160 168
90 91 94 95 98 106 111 113 116 119 121 123 121 119 118 118 117 119 117 114 115 115 116 114 113 116 119 121 121 122 125 127 127 130 136 140 147 153 158 160 169 174 174 178